Terug naar catalogus

CZ-6A DEB

ActiefSSO
NORAD 54442·DEBRIS·🇨🇳 China

Gelanceerd Nov 11, 2022 vanaf Taiyuan Satellite Launch Center

Loading…

Volgende Passages (komende 24 uur)

TLE

VersSource: Space-Track

Epoch: Sep 14, 2026, 08:19 UTC

1 54442U 22151FS  26257.34694929  .00000454  00000-0  32089-3 0  9996
2 54442  98.8760 229.8315 0105644 169.4653 190.8760 14.00088552195855

Volg CZ-6A DEB in realtime met AllMySat

Download on the App Store